Location: Willingham
(52.3167°N, 0.0667°E)
Time: 22:42:01
(UTC+00:00)

USA 245 - Pass Details

Date: 19 May 2025
Orbit: 292 x 1030 km, 97.9° (Epoch: 02 June)

Event Time Altitude Azimuth Distance (km) Brightness Sun altitude
Exits shadow 20:37:31 - 152° (SSE) 2,329 5.9 -5.8°
Reaches altitude 10° 20:38:17 10° 151° (SSE) 2,023 5.6 -5.9°
Maximum altitude 20:42:43 65° 70° (ENE) 815 4.1 -6.4°
Drops below altitude 10° 20:48:14 10° 350° (N) 2,508 7.6 -7.0°
Sets 20:50:53 0° 348° (NNW) 3,550 8.6 -7.3°
